Location: Ariel
(45.9570°N, 122.5700°W)
Time: 16:09:57
(UTC-07:00)

Tiros 1 - Pass Details

Date: 23 July 2019
Orbit: 631 x 664 km, 48.4° (Epoch: 25 August)

Event Time Altitude Azimuth Distance (km) Brightness Sun altitude
Rises 16:17:01 0° 284° (WNW) 2,998 11.1 45.0°
Reaches altitude 10° 16:19:23 10° 286° (WNW) 2,084 10.5 44.6°
Maximum altitude 16:24:12 76° 12° (NNE) 687 7.9 43.8°
Drops below altitude 10° 16:29:00 10° 99° (E) 2,073 9.5 43.0°
Sets 16:31:21 0° 101° (E) 2,980 10.2 42.6°
